[[{"header":{"parameterUnit":"m.s-1","parameterCategory":1,"la1":30.2991,"la2":30.254,"lo1":-89.0895,"lo2":-89.0444,"dy":0.0017,"dx":0.0017,"nx":28,"ny":28,"refTime":"2024-03-24T21:00:00:Z","depth":0,"parameterNumber":2,"parameterNumberName":"U-component_of_WINDS"},"data":[0,0,0,0,0,0,0,0,0,0,0,0,0,0,0,0,0,0,0,0,0,0,0,0,0,0,0,0,0,0,0,0,0,0,0,0,0,0,0,0,0,0,0,0,0,0,0,0,0,0,0,0,0,0,0,0,0,0,-6.8883,-6.8884,0,-6.9025,-6.9027,-6.9028,-6.9038,-6.9037,-6.9035,-6.9034,-6.9174,-6.9179,-6.9184,0,0,0,0,0,0,0,0,0,0,0,0,0,-6.8615,-6.862,-6.8883,-6.8884,-6.8886,-6.9025,-6.9027,-6.9029,-6.9038,-6.9037,-6.9035,-6.9033,-6.9172,-6.9178,-6.9184,0,0,0,0,0,0,0,0,0,0,0,0,0,-6.8742,-6.8622,-6.8882,-6.8908,-6.8912,-6.9024,-6.9027,-6.9029,-6.9039,-6.9037,-6.9034,-6.9032,-6.917,-6.9178,-6.9185,-6.928,0,0,-6.9209,-6.9212,0,0,0,0,0,0,0,0,-6.8735,-6.8751,-6.8902,-6.8906,-6.8911,-6.9012,-6.8984,-6.9113,-6.9039,-6.899,-6.9034,-6.9031,-6.9121,-6.9133,-6.9165,-6.9287,-6.9293,-6.921,-6.9215,-6.9218,-6.922,0,0,0,0,0,0,0,-6.8726,-6.8745,-6.8939,-6.8905,-6.891,-6.8911,-6.8926,-6.9008,-6.9067,-6.8995,-6.8996,-6.9013,-6.9123,-6.9157,-6.9168,-6.9295,-6.921,-6.9216,-6.9221,-6.9224,-6.9502,-6.9505,0,0,0,0,0,0,-6.8713,-6.8738,-6.8934,-6.8943,-6.8815,-6.8918,-6.8935,-6.8982,-6.9066,-6.9077,-6.9014,-6.9013,-6.9145,-6.9159,-6.9173,-6.9289,-6.9218,-6.9225,-6.923,-6.95,-6.9503,-6.9506,0,0,0,0,0,0,-6.8707,-6.873,-6.8929,-6.8841,-6.8866,-6.8925,-6.8977,-6.8986,-6.902,-6.9082,-6.9091,-6.9039,-6.9144,-6.9162,-6.9254,-6.9294,-6.9229,-6.9236,-6.9496,-6.9501,-6.9504,-6.9523,0,0,0,0,0,0,-6.8699,-6.8728,-6.8766,-6.8842,-6.8871,-6.9008,-6.898,-6.899,-6.9034,-6.9032,-6.9107,-6.9117,-6.9143,-6.9242,-6.9262,-6.9304,-6.9242,-6.9493,-6.9498,-6.9503,-6.9519,-6.9527,-6.9534,0,0,0,0,0,-6.869,-6.8764,-6.8768,-6.8791,-6.892,-6.9011,-6.9027,-6.9058,-6.9037,-6.9074,-6.9114,-6.9114,-6.9287,-6.9252,-6.9274,-6.9319,-6.9491,-6.9497,-6.9503,-6.9515,-6.9526,-6.9534,0,0,0,0,0,0,-6.8689,-6.8774,-6.8779,-6.8881,-6.8939,-6.9012,-6.906,-6.9067,-6.9131,-6.9127,-6.9161,-6.9177,-6.9268,-6.9303,-6.9261,-6.9415,-6.9386,-6.9397,-6.9389,-6.9399,-6.9406,-6.9395,-6.9248,0,0,0,0,0,-6.8701,-6.8769,-6.884,-6.8923,-6.8952,-6.9001,-6.9042,-6.9061,-6.9121,-6.9145,-6.9192,-6.9249,-6.9317,-6.936,-6.9425,-6.9525,-6.9541,-6.9567,-6.9574,-6.958,-6.9588,-6.9643,-6.9655,-6.9526,-6.9526,-6.9526,0,0,-6.8725,-6.8781,-6.8821,-6.8924,-6.8971,-6.904,-6.9022,-6.9095,-6.9146,-6.9156,-6.9246,-6.9282,-6.9348,-6.9445,-6.9489,-6.9476,-6.9628,-6.9588,-6.9593,-6.9597,-6.9651,-6.9663,-6.9674,-6.953,-6.9529,-6.9529,0,0,-6.8805,-6.8854,-6.8929,-6.8977,-6.9049,-6.9082,-6.91,-6.9174,-6.9199,-6.929,-6.9299,-6.936,-6.9475,-6.9522,-6.9561,-6.966,-6.9662,-6.9681,-6.9719,-6.9772,-6.9782,-6.9791,-6.9825,-6.9838,-6.9689,-6.9689,-6.9689,0,-6.8825,-6.8931,-6.8965,-6.9039,-6.9083,-6.9099,-6.9173,-6.9218,-6.9307,-6.9336,-6.9322,-6.9468,-6.9513,-6.962,-6.9645,-6.9676,-6.9696,-6.9671,-6.9779,-6.9788,-6.9797,-6.983,-6.9843,-6.9691,-6.9691,-6.969,-6.969,0,-6.8952,-6.9025,-6.9076,-6.9164,-6.9215,-6.9288,-6.9333,-6.9379,-6.9395,-6.9428,-6.9521,-6.9577,-6.9654,-6.9681,-6.9696,-6.979,-6.978,-6.9772,-6.9743,-6.981,-6.9842,-6.9855,-6.9693,-6.9692,-6.9692,-6.9692,0,0,-6.9033,-6.9141,-6.9158,-6.9199,-6.9281,-6.9337,-6.9411,-6.9489,-6.9527,-6.9589,-6.9651,-6.9749,-6.9743,-6.9787,-6.9807,-6.9854,-6.9928,-6.9839,-6.9841,-6.9852,-7.0034,-7.0038,-7.0052,-6.9931,-6.9933,-6.9935,-7.0028,0,-6.912,-6.9254,-6.9288,-6.9402,-6.9469,-6.9486,-6.955,-6.9607,-6.9641,-6.9702,-6.9739,-6.9808,-6.9794,-6.9821,-6.9868,-6.9908,-6.9964,-6.9903,-6.9986,-6.9989,-6.9967,-7.0069,-7.0074,-7.0158,-7.004,-7.0043,-7.0044,0,-6.9239,-6.9306,-6.9427,-6.9501,-6.953,-6.9588,-6.9661,-6.972,-6.9784,-6.9806,-6.9856,-6.9873,-6.9949,-6.9919,-7.0024,-6.9982,-7.0018,-7.0044,-7.0048,-7.0054,-7.0019,-7.0077,-7.0186,-7.0198,-7.0064,-7.0062,-7.0061,0,-6.9284,-6.9404,-6.9491,-6.9525,-6.9614,-6.9654,-6.9692,-6.9755,-6.9799,-6.9864,-6.9892,-6.9964,-7.0003,-7.0057,-7.0092,-7.0067,-7.0194,-7.0167,-7.0212,-7.0211,-7.0236,-7.0234,-7.0351,-7.0264,-7.0263,-7.0263,-7.0263,0,-6.9377,-6.945,-6.9513,-6.9566,-6.9648,-6.9687,-6.9766,-6.9805,-6.986,-6.9921,-6.994,-6.9995,-7.0039,-7.0101,-7.0128,-7.0211,-7.0228,-7.0247,-7.0253,-7.0244,-7.0241,-7.0266,-7.0261,-7.0266,-7.0266,-7.0265,-7.0264,0,-6.944,-6.9485,-6.9582,-6.9659,-6.968,-6.9736,-6.9801,-6.9853,-6.9889,-6.9966,-6.9986,-7.0041,-7.0115,-7.0156,-7.0248,-7.0266,-7.0358,-7.0362,-7.0336,-7.0338,-7.0381,-7.0376,-7.0517,-7.0537,-7.0438,-7.0439,-7.0439,0,-6.9495,-6.9552,-6.9635,-6.9678,-6.9718,-6.9787,-6.9833,-6.9873,-6.9919,-6.9998,-7.004,-7.0116,-7.0178,-7.0294,-7.0342,-7.0412,-7.0417,-7.0462,-7.0427,-7.0417,-7.0415,-7.0411,-7.0416,-7.0466,-7.0467,-7.0468,-7.0469,0,-6.9588,-6.9608,-6.9674,-6.9749,-6.9804,-6.9865,-6.9924,-6.9958,-7.0008,-7.0059,-7.0136,-7.0184,-7.028,-7.0353,-7.0428,-7.0466,-7.0475,-7.048,-7.0494,-7.0484,-7.0466,-7.0475,-7.035,-7.0475,-7.0475,-7.0474,-7.0474,-7.0474,-6.9647,-6.9699,-6.9766,-6.9839,-6.9889,-6.9945,-6.9998,-7.0041,-7.0106,-7.0188,-7.0207,-7.0288,-7.0351,-7.0452,-7.0492,-7.0555,-7.0546,-7.0567,-7.0572,-7.0576,-7.0576,-7.0458,-7.0569,-7.0569,-7.0568,-7.0568,-7.0568,0,-6.974,-6.9785,-6.9852,-6.9936,-6.9994,-7.0,-7.0067,-7.0114,-7.0185,-7.0244,-7.0306,-7.0393,-7.0466,-7.052,-7.0593,-7.0633,-7.0639,-7.065,-7.0647,-7.0655,-7.0581,-7.056,-7.0644,-7.0644,-7.0644,-7.0644,-7.0644,-7.0644,-6.9795,-6.9882,-6.991,-7.0021,-7.0065,-7.0145,-7.0182,-7.0233,-7.0281,-7.0378,-7.0439,-7.0475,-7.0532,-7.061,-7.0676,-7.069,-7.0715,-7.0726,-7.074,-7.0669,-7.066,-7.0652,-7.0634,-7.0732,-7.0732,-7.0809,-7.081,-7.081]},{"header":{"parameterUnit":"m.s-1","parameterCategory":1,"la1":30.2991,"la2":30.254,"lo1":-89.0895,"lo2":-89.0444,"dy":0.0017,"dx":0.0017,"nx":28,"ny":28,"refTime":"2024-03-24T21:00:00:Z","depth":0,"parameterNumber":3,"parameterNumberName":"V-component_of_WINDS"},"data":[0,0,0,0,0,0,0,0,0,0,0,0,0,0,0,0,0,0,0,0,0,0,0,0,0,0,0,0,0,0,0,0,0,0,0,0,0,0,0,0,0,0,0,0,0,0,0,0,0,0,0,0,0,0,0,0,0,0,7.0971,7.0971,0,7.1006,7.1007,7.1007,7.0945,7.0942,7.094,7.0938,7.0971,7.0974,7.0976,0,0,0,0,0,0,0,0,0,0,0,0,0,7.0848,7.085,7.0971,7.0971,7.0972,7.1006,7.1007,7.1007,7.0945,7.0942,7.094,7.0937,7.097,7.0973,7.0977,0,0,0,0,0,0,0,0,0,0,0,0,0,7.0894,7.0851,7.0971,7.0945,7.0943,7.1006,7.1007,7.1007,7.0945,7.0942,7.0939,7.0936,7.0969,7.0973,7.0977,7.1066,0,0,7.099,7.0992,0,0,0,0,0,0,0,0,7.0891,7.0899,7.0948,7.0947,7.0945,7.0968,7.0975,7.1027,7.0946,7.0944,7.0938,7.0935,7.0972,7.0976,7.0989,7.1067,7.1069,7.099,7.0993,7.0995,7.0996,0,0,0,0,0,0,0,7.0888,7.0897,7.0985,7.0949,7.0947,7.0931,7.0934,7.0985,7.0975,7.0944,7.094,7.0945,7.0971,7.0985,7.099,7.1069,7.099,7.0994,7.0997,7.0998,7.1225,7.1228,0,0,0,0,0,0,7.0889,7.0894,7.0984,7.0986,7.091,7.0936,7.0939,7.0964,7.0975,7.0973,7.0948,7.0942,7.098,7.0985,7.0991,7.1097,7.0995,7.0999,7.1001,7.1222,7.1226,7.123,0,0,0,0,0,0,7.0886,7.0897,7.0982,7.0939,7.0949,7.0941,7.0969,7.0966,7.0981,7.0977,7.0975,7.0965,7.0977,7.0985,7.1049,7.1098,7.1001,7.1004,7.1218,7.1223,7.1228,7.1311,0,0,0,0,0,0,7.0883,7.0897,7.0931,7.094,7.0951,7.104,7.0972,7.0969,7.0989,7.0982,7.0993,7.0991,7.0976,7.1043,7.1053,7.1102,7.1008,7.1213,7.122,7.1226,7.1304,7.1318,7.1331,0,0,0,0,0,7.0879,7.0951,7.0933,7.0944,7.0994,7.1043,7.1049,7.1031,7.0993,7.1027,7.1025,7.0991,7.1091,7.105,7.1061,7.1111,7.121,7.1218,7.1226,7.1297,7.1315,7.133,0,0,0,0,0,0,7.0945,7.0952,7.0931,7.1009,7.1027,7.1033,7.1075,7.105,7.1077,7.1069,7.1044,7.1047,7.1116,7.112,7.1074,7.1199,7.1144,7.1154,7.1195,7.1212,7.1225,7.1223,7.1011,0,0,0,0,0,7.0969,7.101,7.1013,7.1081,7.1091,7.1082,7.1103,7.1087,7.1104,7.111,7.1113,7.1129,7.1165,7.1188,7.122,7.1304,7.1306,7.1344,7.1358,7.1369,7.1378,7.1425,7.1443,7.1256,7.1255,7.1255,0,0,7.1018,7.1027,7.1054,7.1095,7.1106,7.1149,7.1088,7.1135,7.1167,7.1117,7.1178,7.1181,7.1198,7.1273,7.1306,7.1278,7.1431,7.1379,7.1388,7.1391,7.1435,7.1453,7.1469,7.1261,7.126,7.1259,0,0,7.113,7.114,7.1199,7.1213,7.1233,7.1227,7.1241,7.1252,7.1253,7.1315,7.1279,7.1316,7.1376,7.1391,7.1406,7.1527,7.1498,7.1538,7.1609,7.1655,7.167,7.1683,7.1728,7.1744,7.1547,7.1548,7.1548,0,7.1188,7.1252,7.1233,7.1284,7.1304,7.1263,7.1323,7.1337,7.1365,7.138,7.1348,7.1426,7.1434,7.1513,7.1543,7.1556,7.1572,7.1537,7.167,7.1682,7.1694,7.1737,7.1754,7.1553,7.1552,7.1552,7.1551,0,7.1324,7.1369,7.1415,7.1446,7.1471,7.1526,7.1515,7.1542,7.1525,7.1523,7.1588,7.1596,7.1631,7.1648,7.1631,7.1726,7.1708,7.1674,7.1617,7.1717,7.1757,7.1773,7.156,7.1558,7.1556,7.1555,0,0,7.1477,7.1499,7.1517,7.1532,7.1552,7.1586,7.164,7.1675,7.17,7.1722,7.1767,7.1821,7.179,7.1807,7.1791,7.1832,7.193,7.1793,7.1793,7.1819,7.2038,7.2065,7.2084,7.1911,7.1914,7.1916,7.2037,0,7.159,7.1685,7.167,7.1762,7.1805,7.1768,7.1815,7.1833,7.1832,7.1868,7.1866,7.1906,7.1861,7.1872,7.191,7.191,7.1974,7.1901,7.1953,7.1955,7.1952,7.2105,7.2133,7.2247,7.2053,7.2055,7.2057,0,7.1734,7.1764,7.1861,7.1877,7.1894,7.1937,7.197,7.2005,7.2024,7.2021,7.2043,7.202,7.2075,7.2018,7.2093,7.2044,7.2064,7.2068,7.2072,7.2076,7.2013,7.2115,7.2282,7.23,7.2081,7.2079,7.2077,0,7.1839,7.1903,7.197,7.1983,7.2003,7.2035,7.2045,7.2061,7.2085,7.2113,7.2128,7.2162,7.2181,7.2207,7.2195,7.2154,7.2273,7.2214,7.2273,7.2273,7.23,7.2298,7.2474,7.2311,7.2311,7.2311,7.231,0,7.1967,7.2028,7.2018,7.2059,7.2127,7.211,7.2177,7.2182,7.2198,7.2239,7.2208,7.2248,7.2228,7.2267,7.2257,7.2322,7.233,7.233,7.2327,7.2333,7.2334,7.2347,7.2339,7.2315,7.2314,7.2313,7.2312,0,7.2095,7.209,7.2162,7.2176,7.2181,7.2231,7.2243,7.2282,7.228,7.2333,7.2345,7.2341,7.2385,7.2376,7.2423,7.2416,7.2499,7.2485,7.2493,7.249,7.255,7.2545,7.2741,7.2766,7.2586,7.2588,7.2589,0,7.2178,7.2225,7.2246,7.2273,7.2285,7.2328,7.2353,7.2338,7.2365,7.2393,7.2429,7.247,7.2503,7.2574,7.2576,7.2612,7.26,7.2666,7.2605,7.2611,7.2603,7.2601,7.2607,7.2678,7.2681,7.2682,7.2684,0,7.2327,7.2323,7.236,7.2399,7.243,7.2458,7.2483,7.2507,7.2494,7.2526,7.2572,7.2597,7.2647,7.2689,7.2724,7.2733,7.2707,7.2703,7.2719,7.2727,7.273,7.2731,7.2528,7.2699,7.2697,7.2696,7.2695,7.2695,7.2436,7.2477,7.2499,7.2543,7.2561,7.2586,7.2625,7.2629,7.2667,7.2708,7.2697,7.2749,7.2769,7.2814,7.2827,7.2868,7.2843,7.2865,7.2871,7.2877,7.2885,7.2723,7.2873,7.2873,7.2872,7.2872,7.2872,0,7.2585,7.2598,7.2638,7.2677,7.2712,7.2686,7.2713,7.2744,7.2791,7.2813,7.2847,7.29,7.2942,7.2947,7.2987,7.3018,7.3007,7.3029,7.3027,7.303,7.2904,7.2888,7.3037,7.3037,7.3037,7.3037,7.3037,7.3037,7.2666,7.2735,7.2735,7.2813,7.2825,7.2878,7.2896,7.292,7.2938,7.3,7.3035,7.3039,7.3055,7.3095,7.3132,7.3133,7.3149,7.3176,7.3173,7.3055,7.3039,7.3023,7.3007,7.318,7.318,7.3295,7.3296,7.3297]}]]